Location: Brompton
(51.4000°N, 0.5333°E)
Time: 10:19:14
(UTC+00:00)

Cosmos 1898 Rocket - Pass Details

Date: 30 September 2021
Orbit: 752 x 784 km, 74.0° (Epoch: 17 October)

Event Time Altitude Azimuth Distance (km) Brightness Sun altitude
Rises 21:39:43 0° 252° (WSW) 3,221 7.0 -34.8°
Reaches altitude 10° 21:42:41 10° 269° (W) 2,305 6.3 -35.1°
Maximum altitude 21:46:31 20° 316° (NW) 1,719 5.9 -35.5°
Drops below altitude 10° 21:50:24 10° 4° (N) 2,330 6.5 -35.9°
Sets 21:53:26 0° 21° (NNE) 3,267 7.1 -36.2°
